Regional Weather Roundup
Issued by NWS

Home | Current Version | Previous Version | Graphics & Text | Print | Product List | Glossary On
Versions: 1 2 3 4 5 6 7 8 9 10 11 12 13 14 15 16 17 18 19 20 21 22 23 24 25 26 27 28 29 30 31 32 33 34 35 36 37 38 39 40 41 42 43 44 45 46 47 48 49 50
000
ASUS45 KCYS 280910
RWRWY

WYOMING REGIONAL WEATHER ROUNDUP
NATIONAL WEATHER SERVICE CHEYENNE WY
200 AM MST TUE FEB 28 2017

NOTE:  "FAIR" INDICATES FEW OR NO CLOUDS BELOW 12,000 FEET
WITH NO SIGNIFICANT WEATHER AND/OR OBSTRUCTIONS TO VISIBILITY.

WYZ001-281000-
YELLOWSTONE NATIONAL PARK

CITY           SKY/WX    TMP DP  RH WIND       PRES   REMARKS
LK YELLOWSTONE   N/A      2  -1  88 CALM      29.61F
W YELLOWSTONE  NOT AVBL

$$
WYZ002>013-054>058-071-098>099-281000-
NORTHERN WYOMING

CITY           SKY/WX    TMP DP  RH WIND       PRES   REMARKS
JACKSON        CLOUDY    16  10  79 S14       29.70R WCI   1
CODY           FAIR      24   5  44 W18G29    29.62F WCI  10
GREYBULL       FAIR      24  19  81 SE3       29.68R
WORLAND        FAIR      19  16  88 VRB3      29.67R
SHERIDAN       MOCLDY    22  18  85 SW8       29.65S WCI  12
BUFFALO        CLOUDY    22  18  85 N9        29.60R WCI  12
GILLETTE       FAIR      19  17  92 CALM      29.59R
HULETT         CLOUDY    27  21  80 NW5       29.58F WCI  21
NEWCASTLE      PTSUNNY   27  19  74 SE12      29.63S WCI  16

$$
WYZ014>020-022>026-101>103-281000-
CENTRAL WYOMING

CITY           SKY/WX    TMP DP  RH WIND       PRES   REMARKS
BIG PINEY      FAIR     -13 -15  91 N7        29.73S WCI -29
PINEDALE       FAIR     -11 -17  77 SW3       29.73S
DUBOIS         FAIR      10   0  61 W17G23    29.61F WCI  -7
LANDER         FAIR      10  -6  48 VRB3      29.68R
RIVERTON       FAIR      11  -1  58 S7        29.68R WCI   0
CASPER         FAIR      16   3  56 SW15      29.67R WCI   1
DOUGLAS        FAIR      21   6  52 W14       29.66R WCI   8

$$
WYZ021-027>030-104>119-281000-
SOUTHERN WYOMING

CITY           SKY/WX    TMP DP  RH WIND       PRES   REMARKS
EVANSTON       MOCLDY    11   6  81 SW8       29.72S WCI  -1
FORT BRIDGER   FAIR      12   9  90 SW12      29.76F WCI  -2
ROCK SPRINGS   FAIR       6   2  83 SW9       29.74F WCI  -8
DIXON            N/A     18  15  90 CALM      29.78F
RAWLINS        FAIR      13   4  67 W16       29.71S WCI  -3
SARATOGA       CLOUDY    18  10  73 SW8       29.73S WCI   7
LARAMIE        FAIR      14   5  67 SW12      29.67F WCI   0
CHEYENNE       MOCLDY    23  12  62 NW14      29.68F WCI  11
TORRINGTON     FAIR      27  15  61 W13       29.71R WCI  16
PINE BLUFFS    PTSUNNY   28  14  54 NW20G32   29.68F WCI  15

$$



USA.gov is the U.S. government's official web portal to all federal, state and local government web resources and services.